SCP
0 0 0 0 0 0 0 0 0 0 0 0 0 0 0 0 0 0 0 0 0 0 0 0 0 0 0 0 0 0 0 0 0 0 0 0 0 0 0 0 0 0 0
0 0 0 0 0 0 0 0 0 0 0 0 0 0 0 0 0 0 0 0 0 0 0 0 0 0 0 0 0 0 0 0 0 0 0 0 0 0 0 0 0 0 0
0 0 0 0 0 0 0 0 0 0 0 0 0 0 0 0 0 0 0 0 0 0 0 0 0 0 0 0 0 0 0 0 0 0 0 0 0 0 0 0 0 0 0
0 0 0 0 0 0 0 0 0 0 0 0 0 0 0 0 0 0 0 0 0 0 0 0 0 0 0 0 0 0 0 0 0 0 0 0 0 0 0 0 0 0 0
0 0 0 0 0 0 0 0 0 0 0 0 0 0 0 0 0 0 0 0 0 0 0 0 0 0 0 0 0 0 0 0 0 0 0 0 0 0 0 0 0 0 0
0 0 0 0 0 0 0 0 0 0 0 0 0 0 0 0 0 0 0 0 0 0 0 0 0 0 0 0 0 0 0 0 0 0 0 0 0 0 0 0 0 0 0
0 0 0 0 0 0 0 0 0 0 0 0 0 0 0 0 0 0 0 0 0 0 0 0 0 0 0 0 0 0 0 0 0 0 0 0 0 0 0 0 0 0 0
0 0 0 0 0 0 0 0 0 0 0 0 0 0 0 0 0 0 0 0 0 0 0 0 0 0 0 0 0 0 0 0 0 0 0 0 0 0 0 0 0 0 0
0 0 0 0 0 0 0 0 0 0 0 0 0 0 0 0 0 0 0 0 0 0 0 0 0 0 0 0 0 0 0 0 0 0 0 0 0 0 0 0 0 0 0
0 0 0 0 0 0 0 0 0 0 0 0 0 0 0 0 0 0 0 0 0 0 0 0 0 0 0 0 0 0 0 0 0 0 0 0 0 0 0 0 0 0 0
0 0 0 0 0 0 0 0 0 0 0 0 0 0 0 0 0 0 0 0 0 0 0 0 0 0 0 0 0 0 0 0 0 0 0 0 0 0 0 0 0 0 0
0 0 0 0 0 0 0 0 0 0 0 0 0 0 0 0 0 0 0 0 0 0 0 0 0 0 0 0 0 0 0 0 0 0 0 0 0 0 0 0 0 0 0
0 0 0 0 0 0 0 0 0 0 0 0 0 0 0 0 0 0 0 0 0 0 0 0 0 0 0 0 0 0 0 0 0 0 0 0 0 0 0 0 0 0 0
0 0 0 0 0 0 0 0 0 0 0 0 0 0 0 0 0 0 0 0 0 0 0 0 0 0 0 0 0 0 0 0 0 0 0 0 0 0 0 0 0 0 0
0 0 0 0 0 0 0 0 0 0 0 0 0 0 0 0 0 0 0 0 0 0 0 0 0 0 0 0 0 0 0 0 0 0 0 0 0 0 0 0 0 0 0
0 0 0 0 0 0 0 0 0 0 0 0 0 0 0 0 0 0 0 0 0 0 0 0 0 0 0 0 0 0 0 0 0 0 0 0 0 0 0 0 0 0 0
0 0 0 0 0 0 0 0 0 0 0 0 0 0 0 0 0 0 0 0 0 0 0 0 0 0 0 0 0 0 0 0 0 0 0 0 0 0 0 0 0 0 0
0 0 0 0 0 0 0 0 0 0 0 0 0 0 0 0 0 0 0 0 0 0 0 0 0 0 0 0 0 0 0 0 0 0 0 0 0 0 0 0 0 0 0
0 0 0 0 0 0 0 0 0 0 0 0 0 0 0 0 0 0 0 0 0 0 0 0 0 0 0 0 0 0 0 0 0 0 0 0 0 0 0 0 0 0 0
0 0 0 0 0 0 0 0 0 0 0 0 0 0 0 0 0 0 0 0 0 0 0 0 0 0 0 0 0 0 0 0 0 0 0 0 0 0 0 0 0 0 0
0 0 0 0 0 0 0 0 0 0 0 0 0 0 0 0 0 0 0 0 0 0 0 0 0 0 0 0 0 0 0 0 0 0 0 0 0 0 0 0 0 0 0
0 0 0 0 0 0 0 0 0 0 0 0 0 0 0 0 0 0 0 0 0 0 0 0 0 0 0 0 0 0 0 0 0 0 0 0 0 0 0 0 0 0 0
0 0 0 0 0 0 0 0 0 0 0 0 0 0 0 0 0 0 0 0 0 0 0 0 0 0 0 0 0 0 0 0 0 0 0 0 0 0 0 0 0 0 0
0 0 0 0 0 0 0 0 0 0 0 0 0 0 0 0 0 0 0 0 0 0 0 0 0 0 0 0 0 0 0 0 0 0 0 0 0 0 0 0 0 0 0
0 0 0 0 0 0 0 0 0 0 0 0 0 0 0 0 0 0 0 0 0 0 0 0 0 0 0 0 0 0 0 0 0 0 0 0 0 0 0 0 0 0 0
0 0 0 0 0 0 0 0 0 0 0 0 0 0 0 0 0 0 0 0 0 0 0 0 0 0 0 0 0 0 0 0 0 0 0 0 0 0 0 0 0 0 0
Wind_Speed_500mb
81 81 80 78 76 74 71 67 61 58 59 60 63 53 55 56 56 58 54 50 49 48 50 50 42 44 49 54 52 39 37 36 44 36 36 38 38 35 32 31 28 30 33
78 81 81 80 81 79 73 70 67 69 67 66 66 53 54 51 50 50 49 50 49 51 50 46 43 45 41 34 38 34 32 34 37 35 36 35 35 33 34 30 31 35 30
81 82 81 81 80 75 71 70 70 69 66 64 57 58 50 48 50 52 53 50 47 45 40 35 34 34 37 35 31 31 31 29 32 34 32 31 30 29 30 35 37 35 29
79 81 80 76 73 72 69 66 64 60 56 53 46 42 43 42 39 37 34 32 27 26 32 36 40 35 33 32 27 27 28 31 30 27 26 25 25 31 37 40 41 33 32
71 69 65 63 62 59 57 55 53 49 41 36 36 36 37 33 27 26 26 25 25 27 29 30 33 34 33 29 28 28 28 26 23 21 22 27 34 40 43 43 37 35 36
61 60 59 59 57 54 50 45 41 37 35 32 30 27 24 24 23 25 24 25 24 29 30 28 29 30 30 32 29 27 25 22 20 24 31 38 43 46 44 40 39 36 38
59 58 57 54 50 45 41 39 36 33 31 29 26 24 25 24 25 26 23 22 21 21 25 27 31 32 30 30 29 27 26 23 25 31 38 44 45 38 35 37 38 41 41
59 58 55 51 46 41 38 36 35 32 28 27 27 26 24 24 25 25 27 27 29 29 28 30 32 32 30 30 29 30 26 27 31 37 41 40 36 35 36 39 42 44 44
63 60 55 49 44 41 40 37 35 33 30 28 28 28 26 26 27 27 27 28 28 27 28 29 29 32 31 32 31 32 31 30 34 38 39 38 38 39 40 42 45 47 47
65 57 50 46 44 41 39 38 34 33 31 31 30 29 28 29 28 26 25 27 28 28 30 29 30 33 34 33 35 34 32 32 37 39 41 43 44 44 46 48 49 48 46
56 53 52 49 45 43 41 39 38 37 35 34 33 31 30 29 27 26 26 27 28 28 28 30 31 35 38 38 38 35 35 37 40 41 44 49 51 52 52 50 50 50 49
60 58 56 51 50 49 45 45 42 39 37 34 33 32 30 27 26 27 28 28 28 29 29 28 34 40 42 44 43 42 41 43 44 45 48 53 56 56 55 53 53 54 53
64 60 55 53 52 49 49 45 41 38 34 32 31 29 27 27 26 27 26 27 28 30 30 33 38 45 46 49 51 51 51 50 49 50 50 51 52 54 59 62 61 60 57
62 58 57 55 52 48 43 38 34 33 31 31 27 24 25 26 26 25 24 25 26 27 31 37 42 46 51 54 56 57 56 54 54 55 53 52 55 60 63 64 64 62 63
58 56 54 48 47 45 39 32 30 31 29 25 23 26 25 23 24 27 26 25 28 31 35 41 44 45 48 51 51 54 57 57 57 58 58 59 60 61 65 64 66 66 69
55 51 49 49 46 42 40 40 38 33 27 25 26 26 26 23 24 27 30 30 32 36 41 43 44 46 48 51 53 55 57 60 62 64 64 66 68 67 69 66 69 72 74
47 49 51 47 45 43 41 36 32 28 25 25 22 19 21 25 27 31 34 35 38 41 44 42 44 46 49 51 52 54 58 58 60 62 64 65 65 65 66 71 71 75 77
46 47 47 46 43 39 34 28 22 19 19 19 19 21 27 29 31 32 36 39 37 37 42 44 48 51 52 52 53 51 50 49 51 52 54 55 55 57 61 63 70 74 77
52 49 44 39 35 31 29 25 20 20 19 21 20 23 29 31 32 34 35 37 41 41 42 44 45 47 51 53 56 57 55 54 54 53 54 55 55 57 60 63 67 72 76
45 41 38 36 32 27 22 21 22 18 14 15 21 24 28 32 34 35 37 40 42 43 44 47 49 49 50 53 54 57 58 58 57 57 56 56 57 59 62 62 65 67 72
42 37 31 28 24 20 16 11 7 10 16 18 24 29 34 37 36 38 39 41 43 44 46 47 48 48 49 52 55 56 59 61 61 61 60 58 58 62 63 63 64 67 66
37 31 23 16 11 11 7 10 16 17 21 25 28 33 41 45 44 44 45 46 47 49 51 54 55 54 53 56 58 61 62 64 65 63 63 63 63 63 62 65 66 64 64
25 20 17 12 7 4 10 18 23 26 30 34 38 41 44 47 50 49 49 51 52 53 54 56 60 61 62 64 65 66 69 69 68 66 65 67 69 69 69 67 63 62 62
15 11 5 5 12 18 24 28 30 33 35 38 41 43 44 46 48 50 50 51 52 53 54 54 55 58 59 60 60 60 61 64 65 66 67 71 73 71 70 68 66 58 55
6 9 14 18 21 23 27 29 31 33 34 36 37 40 41 42 44 44 45 46 48 49 49 49 50 50 51 52 52 52 52 55 59 60 61 61 65 65 62 62 64 58 53
15 16 19 22 24 26 28 31 33 34 35 37 38 39 40 40 42 41 41 43 43 44 44 44 44 45 47 48 49 50 50 50 50 50 53 55 56 57 56 53 53 50 48
Wind_Direction_500mb
229 229 232 234 237 241 243 241 239 241 240 239 248 249 246 248 248 250 255 255 253 256 262 262 261 260 265 261 261 257 256 251 249 254 246 248 246 247 256 264 271 286 292
225 227 229 232 234 237 239 242 242 245 245 246 251 242 244 245 247 245 246 250 250 253 255 261 257 256 253 257 258 245 244 243 244 251 251 247 246 249 255 262 275 283 275
223 226 228 229 231 235 238 241 244 245 248 251 245 243 245 242 246 247 247 248 252 252 252 247 248 250 266 262 249 247 237 244 245 248 252 251 246 247 257 270 278 276 262
222 224 227 229 231 233 235 237 239 237 234 233 237 243 247 250 248 245 239 228 230 236 240 239 236 238 254 238 235 240 252 250 246 244 245 246 252 262 267 275 276 256 261
220 218 219 220 221 223 222 220 221 223 227 233 234 234 232 232 230 231 225 224 227 235 243 247 253 252 239 238 241 247 244 241 234 236 249 263 269 271 272 275 254 254 263
209 209 207 207 206 208 211 214 216 218 218 220 221 226 226 227 230 224 233 231 231 238 241 248 238 230 243 255 247 237 227 228 241 258 271 277 278 275 271 259 249 258 266
196 195 197 199 200 202 204 207 210 213 215 217 222 223 225 228 222 228 223 229 226 230 233 240 251 251 247 241 234 223 226 243 262 279 288 290 282 273 260 252 256 264 268
194 194 194 196 197 200 204 209 213 214 215 219 223 224 226 226 225 224 224 230 230 231 238 241 243 246 242 233 225 229 243 263 281 293 298 292 280 269 261 258 262 267 270
194 194 194 196 198 204 209 212 214 216 218 221 222 223 224 227 225 225 229 235 241 242 242 241 241 238 231 227 228 239 255 276 291 300 299 289 280 272 265 264 268 272 273
195 194 195 199 203 208 210 214 217 217 215 219 223 225 224 226 226 229 238 241 238 240 244 243 239 238 235 232 238 250 265 283 296 305 304 294 285 274 269 269 271 273 274
194 196 200 204 206 207 211 214 215 216 215 219 222 224 226 229 230 231 235 241 244 245 242 245 244 240 242 242 249 260 273 284 295 301 300 295 288 280 275 274 276 276 275
198 202 204 206 209 208 209 212 211 213 215 217 221 226 229 230 232 231 235 240 243 246 253 250 249 249 248 253 258 264 274 282 291 296 298 297 291 284 282 279 277 275 274
204 206 206 209 210 208 209 209 210 213 215 220 224 226 231 235 235 237 238 243 246 250 250 253 253 255 255 259 266 271 276 283 288 290 295 295 292 283 277 276 277 276 275
207 207 209 209 208 204 201 203 210 213 214 218 220 225 229 236 242 249 249 248 253 261 257 255 259 261 263 264 268 273 277 282 284 288 290 292 291 286 282 279 278 277 275
208 209 206 203 202 200 196 197 199 203 202 204 209 220 225 231 237 245 255 261 259 257 263 267 268 269 271 273 275 276 278 280 283 287 289 290 288 284 281 280 279 277 275
202 199 197 194 189 189 194 195 198 205 209 214 218 225 239 244 256 261 264 268 271 271 270 272 273 275 276 278 278 278 279 282 286 287 287 289 291 289 282 277 277 275 274
193 189 186 185 185 188 191 194 196 199 211 222 227 242 254 261 262 267 267 265 267 269 272 272 273 275 278 279 281 282 284 285 285 285 286 288 289 289 287 280 272 274 274
176 181 179 179 182 184 186 190 191 200 210 221 236 249 257 260 261 261 268 272 268 268 272 279 283 285 287 287 287 288 288 288 288 289 288 289 288 290 289 285 279 274 275
174 173 173 177 174 175 175 174 179 196 214 235 247 255 263 269 271 273 274 273 277 277 277 281 283 287 290 291 293 296 296 295 293 291 292 294 295 293 291 290 288 285 281
163 164 163 164 165 167 171 182 194 206 226 248 262 265 270 274 276 280 279 278 277 279 279 278 277 279 280 283 284 287 290 292 292 291 290 291 292 292 291 293 292 290 286
153 153 154 155 152 159 173 204 231 242 260 266 275 280 281 282 283 280 278 277 278 278 279 279 278 277 276 277 279 283 285 287 289 291 291 291 290 288 290 291 291 291 290
143 140 146 160 177 191 216 249 264 276 279 277 276 276 278 282 284 286 287 286 284 281 280 280 280 278 278 277 276 276 279 282 285 287 288 288 288 288 288 290 291 290 290
142 151 156 170 192 247 277 276 278 278 281 284 283 282 283 285 286 286 286 285 285 284 283 283 283 282 279 278 278 279 281 283 284 284 282 282 284 285 287 289 291 292 291
148 158 165 273 290 288 278 276 278 281 283 283 284 284 284 285 286 286 287 287 287 286 285 283 283 284 284 284 285 285 285 284 283 282 280 281 284 287 290 291 289 289 287
197 246 257 259 261 268 273 279 285 291 292 291 292 293 293 293 291 288 288 288 289 289 289 289 288 288 288 288 289 289 286 284 285 286 286 285 284 284 283 283 285 287 284
235 246 255 261 272 280 285 290 292 293 293 294 294 294 295 294 292 292 294 294 293 292 293 294 295 294 293 293 292 292 292 291 290 288 286 284 283 284 286 286 284 282 281
Wind_Speed_850mb
81 81 80 78 76 74 71 67 61 58 59 60 63 53 55 56 56 58 54 50 49 48 50 50 42 44 49 54 52 39 37 36 44 36 36 38 38 35 32 31 28 30 33
78 81 81 80 81 79 73 70 67 69 67 66 66 53 54 51 50 50 49 50 49 51 50 46 43 45 41 34 38 34 32 34 37 35 36 35 35 33 34 30 31 35 30
81 82 81 81 80 75 71 70 70 69 66 64 57 58 50 48 50 52 53 50 47 45 40 35 34 34 37 35 31 31 31 29 32 34 32 31 30 29 30 35 37 35 29
79 81 80 76 73 72 69 66 64 60 56 53 46 42 43 42 39 37 34 32 27 26 32 36 40 35 33 32 27 27 28 31 30 27 26 25 25 31 37 40 41 33 32
71 69 65 63 62 59 57 55 53 49 41 36 36 36 37 33 27 26 26 25 25 27 29 30 33 34 33 29 28 28 28 26 23 21 22 27 34 40 43 43 37 35 36
61 60 59 59 57 54 50 45 41 37 35 32 30 27 24 24 23 25 24 25 24 29 30 28 29 30 30 32 29 27 25 22 20 24 31 38 43 46 44 40 39 36 38
59 58 57 54 50 45 41 39 36 33 31 29 26 24 25 24 25 26 23 22 21 21 25 27 31 32 30 30 29 27 26 23 25 31 38 44 45 38 35 37 38 41 41
59 58 55 51 46 41 38 36 35 32 28 27 27 26 24 24 25 25 27 27 29 29 28 30 32 32 30 30 29 30 26 27 31 37 41 40 36 35 36 39 42 44 44
63 60 55 49 44 41 40 37 35 33 30 28 28 28 26 26 27 27 27 28 28 27 28 29 29 32 31 32 31 32 31 30 34 38 39 38 38 39 40 42 45 47 47
65 57 50 46 44 41 39 38 34 33 31 31 30 29 28 29 28 26 25 27 28 28 30 29 30 33 34 33 35 34 32 32 37 39 41 43 44 44 46 48 49 48 46
56 53 52 49 45 43 41 39 38 37 35 34 33 31 30 29 27 26 26 27 28 28 28 30 31 35 38 38 38 35 35 37 40 41 44 49 51 52 52 50 50 50 49
60 58 56 51 50 49 45 45 42 39 37 34 33 32 30 27 26 27 28 28 28 29 29 28 34 40 42 44 43 42 41 43 44 45 48 53 56 56 55 53 53 54 53
64 60 55 53 52 49 49 45 41 38 34 32 31 29 27 27 26 27 26 27 28 30 30 33 38 45 46 49 51 51 51 50 49 50 50 51 52 54 59 62 61 60 57
62 58 57 55 52 48 43 38 34 33 31 31 27 24 25 26 26 25 24 25 26 27 31 37 42 46 51 54 56 57 56 54 54 55 53 52 55 60 63 64 64 62 63
58 56 54 48 47 45 39 32 30 31 29 25 23 26 25 23 24 27 26 25 28 31 35 41 44 45 48 51 51 54 57 57 57 58 58 59 60 61 65 64 66 66 69
55 51 49 49 46 42 40 40 38 33 27 25 26 26 26 23 24 27 30 30 32 36 41 43 44 46 48 51 53 55 57 60 62 64 64 66 68 67 69 66 69 72 74
47 49 51 47 45 43 41 36 32 28 25 25 22 19 21 25 27 31 34 35 38 41 44 42 44 46 49 51 52 54 58 58 60 62 64 65 65 65 66 71 71 75 77
46 47 47 46 43 39 34 28 22 19 19 19 19 21 27 29 31 32 36 39 37 37 42 44 48 51 52 52 53 51 50 49 51 52 54 55 55 57 61 63 70 74 77
52 49 44 39 35 31 29 25 20 20 19 21 20 23 29 31 32 34 35 37 41 41 42 44 45 47 51 53 56 57 55 54 54 53 54 55 55 57 60 63 67 72 76
45 41 38 36 32 27 22 21 22 18 14 15 21 24 28 32 34 35 37 40 42 43 44 47 49 49 50 53 54 57 58 58 57 57 56 56 57 59 62 62 65 67 72
42 37 31 28 24 20 16 11 7 10 16 18 24 29 34 37 36 38 39 41 43 44 46 47 48 48 49 52 55 56 59 61 61 61 60 58 58 62 63 63 64 67 66
37 31 23 16 11 11 7 10 16 17 21 25 28 33 41 45 44 44 45 46 47 49 51 54 55 54 53 56 58 61 62 64 65 63 63 63 63 63 62 65 66 64 64
25 20 17 12 7 4 10 18 23 26 30 34 38 41 44 47 50 49 49 51 52 53 54 56 60 61 62 64 65 66 69 69 68 66 65 67 69 69 69 67 63 62 62
15 11 5 5 12 18 24 28 30 33 35 38 41 43 44 46 48 50 50 51 52 53 54 54 55 58 59 60 60 60 61 64 65 66 67 71 73 71 70 68 66 58 55
6 9 14 18 21 23 27 29 31 33 34 36 37 40 41 42 44 44 45 46 48 49 49 49 50 50 51 52 52 52 52 55 59 60 61 61 65 65 62 62 64 58 53
15 16 19 22 24 26 28 31 33 34 35 37 38 39 40 40 42 41 41 43 43 44 44 44 44 45 47 48 49 50 50 50 50 50 53 55 56 57 56 53 53 50 48
Wind_Direction_850mb
229 229 232 234 237 241 243 241 239 241 240 239 248 249 246 248 248 250 255 255 253 256 262 262 261 260 265 261 261 257 256 251 249 254 246 248 246 247 256 264 271 286 292
225 227 229 232 234 237 239 242 242 245 245 246 251 242 244 245 247 245 246 250 250 253 255 261 257 256 253 257 258 245 244 243 244 251 251 247 246 249 255 262 275 283 275
223 226 228 229 231 235 238 241 244 245 248 251 245 243 245 242 246 247 247 248 252 252 252 247 248 250 266 262 249 247 237 244 245 248 252 251 246 247 257 270 278 276 262
222 224 227 229 231 233 235 237 239 237 234 233 237 243 247 250 248 245 239 228 230 236 240 239 236 238 254 238 235 240 252 250 246 244 245 246 252 262 267 275 276 256 261
220 218 219 220 221 223 222 220 221 223 227 233 234 234 232 232 230 231 225 224 227 235 243 247 253 252 239 238 241 247 244 241 234 236 249 263 269 271 272 275 254 254 263
209 209 207 207 206 208 211 214 216 218 218 220 221 226 226 227 230 224 233 231 231 238 241 248 238 230 243 255 247 237 227 228 241 258 271 277 278 275 271 259 249 258 266
196 195 197 199 200 202 204 207 210 213 215 217 222 223 225 228 222 228 223 229 226 230 233 240 251 251 247 241 234 223 226 243 262 279 288 290 282 273 260 252 256 264 268
194 194 194 196 197 200 204 209 213 214 215 219 223 224 226 226 225 224 224 230 230 231 238 241 243 246 242 233 225 229 243 263 281 293 298 292 280 269 261 258 262 267 270
194 194 194 196 198 204 209 212 214 216 218 221 222 223 224 227 225 225 229 235 241 242 242 241 241 238 231 227 228 239 255 276 291 300 299 289 280 272 265 264 268 272 273
195 194 195 199 203 208 210 214 217 217 215 219 223 225 224 226 226 229 238 241 238 240 244 243 239 238 235 232 238 250 265 283 296 305 304 294 285 274 269 269 271 273 274
194 196 200 204 206 207 211 214 215 216 215 219 222 224 226 229 230 231 235 241 244 245 242 245 244 240 242 242 249 260 273 284 295 301 300 295 288 280 275 274 276 276 275
198 202 204 206 209 208 209 212 211 213 215 217 221 226 229 230 232 231 235 240 243 246 253 250 249 249 248 253 258 264 274 282 291 296 298 297 291 284 282 279 277 275 274
204 206 206 209 210 208 209 209 210 213 215 220 224 226 231 235 235 237 238 243 246 250 250 253 253 255 255 259 266 271 276 283 288 290 295 295 292 283 277 276 277 276 275
207 207 209 209 208 204 201 203 210 213 214 218 220 225 229 236 242 249 249 248 253 261 257 255 259 261 263 264 268 273 277 282 284 288 290 292 291 286 282 279 278 277 275
208 209 206 203 202 200 196 197 199 203 202 204 209 220 225 231 237 245 255 261 259 257 263 267 268 269 271 273 275 276 278 280 283 287 289 290 288 284 281 280 279 277 275
202 199 197 194 189 189 194 195 198 205 209 214 218 225 239 244 256 261 264 268 271 271 270 272 273 275 276 278 278 278 279 282 286 287 287 289 291 289 282 277 277 275 274
193 189 186 185 185 188 191 194 196 199 211 222 227 242 254 261 262 267 267 265 267 269 272 272 273 275 278 279 281 282 284 285 285 285 286 288 289 289 287 280 272 274 274
176 181 179 179 182 184 186 190 191 200 210 221 236 249 257 260 261 261 268 272 268 268 272 279 283 285 287 287 287 288 288 288 288 289 288 289 288 290 289 285 279 274 275
174 173 173 177 174 175 175 174 179 196 214 235 247 255 263 269 271 273 274 273 277 277 277 281 283 287 290 291 293 296 296 295 293 291 292 294 295 293 291 290 288 285 281
163 164 163 164 165 167 171 182 194 206 226 248 262 265 270 274 276 280 279 278 277 279 279 278 277 279 280 283 284 287 290 292 292 291 290 291 292 292 291 293 292 290 286
153 153 154 155 152 159 173 204 231 242 260 266 275 280 281 282 283 280 278 277 278 278 279 279 278 277 276 277 279 283 285 287 289 291 291 291 290 288 290 291 291 291 290
143 140 146 160 177 191 216 249 264 276 279 277 276 276 278 282 284 286 287 286 284 281 280 280 280 278 278 277 276 276 279 282 285 287 288 288 288 288 288 290 291 290 290
142 151 156 170 192 247 277 276 278 278 281 284 283 282 283 285 286 286 286 285 285 284 283 283 283 282 279 278 278 279 281 283 284 284 282 282 284 285 287 289 291 292 291
148 158 165 273 290 288 278 276 278 281 283 283 284 284 284 285 286 286 287 287 287 286 285 283 283 284 284 284 285 285 285 284 283 282 280 281 284 287 290 291 289 289 287
197 246 257 259 261 268 273 279 285 291 292 291 292 293 293 293 291 288 288 288 289 289 289 289 288 288 288 288 289 289 286 284 285 286 286 285 284 284 283 283 285 287 284
235 246 255 261 272 280 285 290 292 293 293 294 294 294 295 294 292 292 294 294 293 292 293 294 295 294 293 293 292 292 292 291 290 288 286 284 283 284 286 286 284 282 281